Vertical_Velocity
-2 -2 -2 1 3 2 2 0 -3 -5 -4 -3 2 5 5 4 1 -1 -0 1 4 1 1 -4 -5 -2 0 -0 -1 -0 -8 4 -7 -5 7 -1 -5 4 -1 -4 -9 4 4 8 -1
-2 -1 -1 -0 -0 -1 0 1 1 2 -1 -4 -5 -4 -4 -1 1 2 3 0 3 -0 3 3 0 -2 -2 -3 -4 -6 -3 -2 -6 -2 -2 1 0 -6 4 -10 1 -8 8 -1 -5
-6 -4 -0 -3 -4 -5 -4 -3 -3 -4 -4 -1 0 0 -2 -4 -2 1 -3 -1 0 1 1 0 -2 0 3 -2 -2 -1 1 -7 -1 -5 -1 -3 -1 -5 -5 11 12 -9 -2 1 1
-5 -4 -5 -4 -4 -1 -1 -0 -3 -4 -2 -2 -3 -3 -0 2 -4 6 2 1 -3 -4 -1 1 2 0 -1 2 2 -1 2 -2 -1 -5 -5 -2 3 2 -10 34 -16 -0 -7 -4 1
-0 -3 -3 -2 -2 -3 -4 -3 -1 -0 0 -0 1 -2 -2 -0 -0 -4 -2 -2 -1 0 -0 -1 -2 -3 1 0 -5 -2 -0 -0 -7 -6 2 -1 -1 -12 29 -22 1 -1 -3 -2 -4
-3 -2 -2 -0 0 -1 -0 -1 -0 -1 0 2 2 1 1 -2 9 -0 -1 1 -1 1 2 1 0 -3 0 1 -5 2 3 -4 3 -13 1 -2 1 -10 2 3 4 -6 -6 -3 2
0 -2 -2 -2 -4 -3 -4 -2 -5 1 -0 -2 -2 -2 2 -5 2 2 1 0 0 0 0 2 2 -0 1 -1 3 1 2 1 1 -6 -4 -5 3 6 -2 0 -6 -1 -2 -2 -2
-2 -3 -3 -2 -2 -1 -1 -3 -2 -6 -2 -1 3 1 1 5 -2 0 1 -1 1 1 2 1 2 1 1 1 3 -1 2 1 1 -2 -6 -4 16 0 -2 -6 -4 -1 -1 -1 2
-3 -3 -2 -2 -5 -1 -5 -4 -3 -2 -2 -4 -4 2 6 6 2 1 3 2 0 1 4 3 3 4 2 3 -3 1 5 1 2 -2 -7 -9 1 16 2 -3 2 -4 -4 -7 4
-4 -5 -4 -4 -5 -5 -3 -6 -2 0 -0 -3 2 4 1 4 2 3 -0 2 4 2 -0 1 1 4 5 -4 4 2 -1 6 10 -1 -19 -7 -2 -0 12 -4 5 -6 -6 -1 -2
-3 -1 -4 -0 -3 -5 -6 -6 -6 -3 15 -6 -3 -0 -3 10 7 3 0 2 5 7 -0 -1 2 13 -15 8 2 1 1 -0 12 -12 -14 -8 -22 25 4 -11 0 -4 -5 -6 -0
-2 -3 -4 -3 -3 -3 -4 -8 1 -6 9 -8 -3 1 12 5 3 -0 4 4 6 7 -0 5 15 -5 -1 1 2 3 -2 9 9 -10 -11 3 -16 5 10 7 -5 -6 2 -5 -3
-2 -2 -3 -4 -2 -2 -3 -2 -5 -4 -5 -5 -1 8 5 0 2 -1 3 5 5 7 0 5 9 -2 -1 4 -1 -4 6 3 -5 -5 -5 -10 -17 13 11 9 -8 -2 -7 -2 -8
-0 -0 -4 -1 0 -5 -6 -5 -4 -4 -9 -1 -3 -6 -5 -3 -3 2 2 2 6 6 -1 7 2 0 3 10 -8 13 -15 3 2 -6 3 4 -51 7 11 10 -2 -4 -0 -2 -2
-3 -4 -1 0 -2 -4 1 -2 -5 -5 -11 -14 -3 -4 -2 1 -2 1 -0 1 2 2 1 14 4 -2 6 -2 2 3 7 -1 -1 -2 -8 4 -19 10 35 3 -4 7 1 -5 -0
-1 -2 -4 -3 -1 1 -5 -5 0 1 -7 2 8 2 2 0 5 2 12 12 13 9 5 11 -0 2 4 3 2 1 3 4 -1 1 -15 13 -8 -0 21 -6 2 5 -6 -5 -3
-4 0 -1 -1 -4 -2 1 -6 -11 -4 -2 -1 4 4 8 1 5 -1 10 10 10 -4 3 5 3 7 3 4 2 0 -1 2 -0 -5 -3 1 -21 41 8 -5 4 -4 -2 -0 -1
-0 -3 -4 -3 -2 -3 2 -7 -3 6 4 8 -1 7 -4 -1 6 1 -1 0 6 7 -0 5 18 -0 4 9 -1 -0 -0 6 -11 -0 1 -9 -24 17 -2 1 1 -2 -8 -7 -8
-3 -5 -2 -3 0 -4 -2 -4 -1 -5 -9 -11 8 4 3 -1 -2 -2 0 5 8 4 1 -1 6 -7 6 3 2 1 1 2 -11 6 -12 9 8 -0 -4 2 -1 -1 -3 0 -0
2 -6 -0 0 -1 -5 -2 3 2 -5 -1 -2 -1 3 -4 2 -0 -2 5 1 2 2 5 -1 -1 4 1 5 5 -2 4 3 -2 -7 -7 -0 1 -10 6 -1 -1 4 -2 -2 -1
-1 -4 -8 -2 1 1 -2 -1 6 2 -4 -2 -1 -1 3 -3 -1 -3 3 4 3 4 6 3 3 7 9 8 2 -2 -4 1 4 -1 -10 -12 14 6 3 -3 -5 2 -3 -3 5
1 -8 -7 -6 0 2 -1 -5 -6 3 0 -4 -0 1 1 -1 -2 -1 -0 -1 1 -2 5 3 -2 -4 5 -0 4 1 -1 1 -4 5 -1 -6 -10 10 -15 -1 -6 1 -4 3 -2
0 10 7 -3 -5 1 3 6 -1 -8 0 -1 0 3 3 -0 -9 2 2 2 0 2 -0 1 -0 -10 3 4 1 0 4 1 -3 -5 9 -4 -9 1 -11 2 1 -6 -1 4 -7
0 -13 -8 -7 -5 -5 -4 -1 -3 5 -1 0 3 -6 0 5 4 -6 -1 2 0 1 0 -1 3 1 -4 5 2 -2 6 6 -4 -7 1 5 -16 -4 4 -7 3 4 -4 1 -1
-3 -2 -1 -8 -4 -0 -2 -4 -1 -2 8 -3 9 3 -6 -2 -1 3 3 3 7 4 -3 1 -13 -0 3 2 0 -2 -2 17 -9 4 -21 27 -12 -3 -5 -5 -3 -3 1 3 -6
-2 -13 -4 -7 -3 1 -3 1 -0 9 -10 1 -0 9 3 -4 -5 -5 -6 6 4 14 4 1 -8 -1 2 2 -0 -8 2 3 8 2 -6 3 1 -5 -4 -5 -1 -7 -4 -4 -10
-0 7 5 -6 -8 -3 -3 -5 -5 -8 11 -6 -5 0 4 2 2 2 -2 3 -4 -1 2 -0 -1 -2 -2 6 1 -0 2 1 3 -1 -2 1 2 0 4 -7 -4 -2 -6 -8 -8
Height
5778 5776 5774 5773 5772 5770 5767 5763 5760 5757 5755 5754 5751 5749 5746 5745 5742 5741 5741 5740 5739 5737 5736 5735 5735 5735 5735 5736 5737 5737 5739 5742 5743 5745 5748 5749 5750 5754 5757 5762 5764 5765 5768 5772 5773
5776 5773 5771 5769 5767 5765 5763 5759 5755 5750 5747 5745 5742 5740 5738 5735 5734 5732 5730 5729 5728 5727 5727 5727 5726 5725 5726 5726 5727 5727 5729 5729 5732 5734 5736 5738 5740 5740 5744 5750 5756 5756 5758 5759 5762
5774 5771 5768 5766 5762 5759 5755 5752 5748 5745 5742 5738 5735 5732 5730 5727 5725 5723 5719 5716 5715 5715 5715 5714 5714 5714 5714 5715 5716 5718 5719 5719 5720 5722 5725 5726 5730 5732 5735 5740 5741 5746 5746 5749 5752
5774 5771 5767 5763 5760 5756 5752 5747 5742 5737 5734 5730 5726 5723 5720 5717 5715 5712 5710 5707 5704 5702 5701 5700 5700 5701 5702 5703 5703 5705 5706 5706 5707 5710 5713 5715 5718 5719 5725 5729 5725 5731 5735 5739 5740
5772 5768 5764 5760 5756 5751 5747 5743 5737 5732 5727 5722 5718 5714 5711 5708 5704 5701 5698 5696 5694 5692 5690 5688 5687 5688 5689 5691 5691 5693 5693 5694 5695 5696 5701 5703 5706 5707 5715 5709 5712 5715 5719 5724 5729
5769 5766 5761 5756 5751 5746 5741 5736 5731 5726 5720 5716 5710 5704 5700 5697 5694 5690 5687 5685 5683 5681 5679 5677 5676 5675 5676 5677 5678 5681 5681 5681 5684 5686 5691 5694 5696 5700 5699 5699 5698 5702 5706 5711 5714
5767 5762 5757 5753 5748 5743 5737 5732 5728 5720 5713 5708 5702 5698 5693 5687 5683 5679 5676 5674 5672 5670 5668 5667 5666 5665 5665 5665 5667 5669 5671 5672 5673 5675 5679 5683 5689 5691 5688 5687 5688 5690 5692 5697 5700
5764 5760 5755 5750 5744 5738 5732 5728 5722 5716 5708 5701 5695 5689 5684 5679 5673 5669 5666 5663 5660 5659 5658 5656 5655 5655 5655 5655 5657 5658 5661 5661 5663 5665 5669 5673 5682 5678 5677 5675 5676 5678 5680 5684 5687
5762 5757 5752 5746 5741 5735 5730 5724 5717 5711 5703 5695 5688 5680 5674 5670 5665 5660 5655 5652 5649 5647 5646 5645 5644 5645 5645 5646 5647 5648 5651 5653 5654 5655 5659 5664 5671 5670 5668 5665 5667 5667 5668 5672 5676
5758 5753 5748 5743 5738 5732 5726 5721 5713 5705 5697 5690 5682 5674 5663 5657 5651 5647 5644 5640 5637 5635 5635 5634 5634 5635 5636 5636 5637 5638 5641 5643 5645 5645 5648 5654 5661 5658 5656 5655 5656 5655 5655 5658 5662
5753 5749 5744 5739 5732 5726 5721 5714 5708 5701 5689 5681 5673 5663 5652 5643 5637 5632 5628 5626 5625 5623 5621 5621 5623 5625 5623 5626 5627 5628 5630 5633 5633 5632 5640 5643 5650 5648 5645 5645 5645 5642 5644 5645 5650
5750 5746 5740 5735 5728 5721 5713 5706 5698 5691 5685 5670 5660 5650 5638 5628 5621 5616 5612 5610 5611 5610 5608 5611 5611 5610 5613 5614 5616 5617 5619 5622 5622 5621 5627 5631 5640 5638 5635 5634 5631 5630 5629 5630 5633
5746 5740 5735 5729 5721 5714 5706 5698 5688 5681 5671 5662 5649 5633 5620 5614 5606 5601 5598 5595 5596 5598 5597 5598 5600 5600 5601 5603 5604 5607 5607 5609 5610 5611 5615 5617 5627 5628 5626 5620 5618 5617 5616 5616 5618
5741 5735 5728 5721 5715 5706 5698 5688 5678 5668 5657 5647 5631 5615 5604 5599 5594 5590 5587 5587 5587 5588 5588 5590 5590 5591 5591 5593 5593 5597 5595 5597 5597 5599 5603 5607 5611 5616 5614 5608 5606 5605 5603 5602 5602
5736 5729 5721 5713 5706 5698 5689 5679 5667 5656 5642 5629 5612 5599 5593 5589 5585 5581 5579 5579 5580 5580 5581 5583 5582 5581 5583 5582 5584 5585 5586 5587 5586 5588 5590 5596 5597 5608 5600 5596 5596 5595 5592 5589 5585
5730 5721 5714 5707 5698 5688 5679 5668 5657 5646 5630 5615 5600 5589 5582 5578 5577 5575 5574 5573 5574 5572 5572 5573 5572 5574 5574 5575 5576 5577 5577 5577 5578 5578 5580 5584 5585 5595 5584 5583 5581 5580 5577 5575 5570
5725 5717 5708 5699 5690 5680 5670 5659 5647 5633 5617 5603 5590 5579 5574 5568 5566 5566 5565 5564 5564 5562 5563 5564 5564 5567 5568 5569 5569 5569 5569 5569 5569 5569 5571 5572 5573 5580 5572 5569 5568 5568 5565 5560 5556
5719 5711 5702 5691 5682 5672 5660 5651 5639 5625 5613 5598 5581 5570 5564 5560 5559 5557 5556 5556 5556 5555 5555 5556 5558 5557 5560 5560 5558 5559 5560 5558 5555 5557 5558 5557 5560 5563 5558 5557 5557 5554 5550 5546 5540
5715 5704 5694 5685 5674 5663 5651 5639 5628 5611 5597 5584 5576 5564 5559 5554 5551 5549 5550 5549 5548 5548 5549 5548 5548 5548 5550 5548 5549 5549 5548 5547 5545 5546 5542 5547 5549 5549 5546 5545 5546 5543 5539 5534 5526
5710 5699 5687 5677 5666 5656 5645 5632 5618 5602 5587 5575 5564 5557 5551 5548 5545 5541 5542 5542 5541 5541 5541 5540 5540 5541 5541 5541 5539 5538 5539 5539 5537 5535 5533 5536 5534 5532 5533 5534 5534 5532 5527 5521 5514
5703 5692 5683 5670 5659 5649 5638 5625 5612 5595 5577 5568 5558 5551 5547 5542 5539 5537 5536 5535 5534 5536 5533 5531 5531 5532 5533 5530 5531 5530 5528 5528 5528 5527 5524 5523 5525 5524 5523 5522 5521 5519 5515 5507 5500
5696 5687 5674 5667 5653 5641 5630 5616 5604 5590 5574 5561 5553 5545 5541 5535 5533 5532 5530 5527 5526 5525 5525 5524 5521 5521 5523 5521 5521 5521 5520 5518 5517 5518 5515 5513 5519 5516 5514 5511 5508 5505 5502 5495 5489
5693 5682 5669 5659 5647 5636 5624 5610 5594 5581 5569 5558 5547 5538 5534 5531 5525 5525 5523 5521 5519 5517 5515 5513 5512 5511 5512 5512 5511 5512 5512 5509 5508 5506 5505 5502 5510 5509 5502 5499 5498 5494 5490 5486 5481
5684 5675 5663 5652 5641 5629 5619 5607 5591 5574 5560 5548 5541 5534 5528 5525 5520 5516 5515 5514 5511 5508 5506 5502 5503 5503 5502 5501 5500 5501 5502 5500 5496 5496 5495 5493 5492 5496 5493 5490 5489 5486 5480 5476 5473
5679 5669 5656 5644 5633 5621 5609 5597 5583 5573 5557 5542 5535 5527 5519 5515 5513 5510 5506 5505 5503 5500 5495 5492 5491 5492 5491 5490 5488 5488 5491 5493 5487 5486 5484 5485 5484 5486 5481 5480 5477 5473 5469 5468 5467
5672 5662 5652 5640 5628 5616 5605 5592 5576 5563 5549 5539 5526 5518 5512 5505 5501 5500 5496 5493 5494 5492 5486 5484 5482 5480 5481 5480 5478 5477 5480 5479 5479 5478 5478 5475 5473 5474 5472 5470 5468 5464 5459 5457 5457
5668 5658 5646 5633 5622 5611 5599 5583 5569 5555 5542 5526 5520 5512 5504 5499 5494 5489 5486 5485 5482 5481 5478 5475 5473 5471 5470 5470 5469 5470 5469 5468 5468 5467 5469 5468 5466 5465 5464 5461 5458 5455 5452 5449 5447